Date,TemperatureHighF,TemperatureAvgF,TemperatureLowF,DewpointHighF,DewpointAvgF,DewpointLowF,HumidityHigh,HumidityAvg,HumidityLow,PressureMaxIn,PressureMinIn,WindSpeedMaxMPH,WindSpeedAvgMPH,GustSpeedMaxMPH,PrecipitationSumIn
2013-1-1,33.3,22.4,3.2,29.3,16.1,1.9,97,77,58,30.00,29.84,12,4,14,0.01
2013-1-2,27.7,21.7,8.2,21.5,16.4,6.8,96,80,70,30.15,29.38,15,5,17,0.00
2013-1-3,30.6,24.1,17.6,28.7,21.3,13.9,96,89,77,30.14,29.93,17,5,19,0.00
2013-1-4,32.7,30.7,27.5,27.5,25.2,21.5,85,80,72,30.02,29.85,26,13,32,0.00
2013-1-5,35.6,31.6,26.4,29.2,26.4,22.2,91,81,73,30.25,30.00,18,6,21,0.00
2013-1-6,35.4,33.7,31.6,33.9,31.8,25.6,99,93,73,30.11,29.21,11,6,15,0.16
2013-1-7,34.0,29.4,24.6,32.8,24.1,-7.0,96,81,68,30.41,30.11,12,4,14,0.00
2013-1-8,37.6,31.2,22.8,29.9,24.2,20.1,95,76,64,30.31,30.17,10,4,14,0.00
2013-1-9,46.6,37.3,21.6,35.8,30.0,19.6,95,76,55,30.37,29.98,22,8,28,0.00
2013-1-10,37.9,33.3,29.8,29.7,27.2,25.5,86,78,69,30.50,30.36,9,3,12,0.00
2013-1-11,51.1,44.3,33.1,46.8,36.1,22.2,91,74,46,30.36,29.82,12,4,14,0.12
2013-1-12,60.8,52.4,43.9,51.2,47.9,42.6,95,85,67,30.00,29.93,14,4,17,0.00
2013-1-13,67.8,54.6,46.6,56.8,50.7,45.2,95,88,68,29.94,29.75,17,5,23,0.13
2013-1-14,46.8,33.1,27.3,45.4,26.7,18.9,95,77,61,30.38,29.75,16,6,18,0.07
2013-1-15,31.1,27.8,25.9,22.5,20.3,18.1,86,73,63,30.39,30.14,7,2,8,0.00
2013-1-16,37.0,32.1,24.2,30.2,25.4,9.5,86,76,53,30.14,29.78,19,5,22,0.00
2013-1-17,34.9,25.9,15.8,30.1,20.0,13.0,92,78,69,30.16,29.85,17,6,21,0.00
2013-1-18,33.3,20.9,10.9,16.9,11.8,6.9,95,69,51,30.42,30.01,13,5,18,0.00
2013-1-19,49.1,42.3,33.3,28.7,23.7,16.3,67,48,37,30.01,29.59,22,9,25,0.00
2013-1-20,48.9,29.4,18.0,33.7,15.1,4.9,70,55,40,30.08,29.49,24,11,31,0.00
2013-1-21,24.4,18.0,10.6,15.7,8.6,-2.8,90,67,54,30.07,29.84,14,4,18,0.00
2013-1-22,11.5,7.9,4.6,-0.7,-4.6,-7.6,61,56,49,30.16,29.90,16,8,19,0.00
2013-1-23,16.5,9.0,1.8,9.8,1.2,-5.9,88,71,43,30.20,30.07,8,3,10,0.00
2013-1-24,22.6,6.8,-8.3,11.4,1.5,-12.0,92,80,55,30.50,30.07,10,2,14,0.00
2013-1-25,22.6,7.4,-8.5,10.2,1.8,-12.2,94,79,49,30.49,30.04,8,2,10,0.00
2013-1-26,33.6,16.5,0.7,14.6,8.9,-1.3,93,74,40,30.39,30.06,5,1,6,0.00
2013-1-27,30.7,19.1,5.7,19.8,13.4,3.9,95,80,55,30.52,30.31,8,1,8,0.00
2013-1-28,44.8,35.6,23.5,43.5,32.9,16.1,95,90,67,30.31,29.83,12,5,18,0.54
2013-1-29,57.0,44.4,34.7,55.1,42.9,33.4,95,95,91,30.04,29.70,14,4,16,0.59
2013-1-30,67.1,59.7,49.3,56.0,51.7,45.9,95,76,58,29.71,29.05,18,7,28,0.36
2013-1-31,51.4,28.5,21.6,48.3,20.4,9.7,95,72,53,29.72,29.05,26,14,32,0.31